Andover, NJ

10:15 AM EDT on May 27, 2018 (GMT -0400)
Andover

Weather History for K12N - September, 2013

Change the Weather History Date:

Wednesday, September 4, 2013

  Actual Average (KFWN) Record (KFWN)
Temperature  
Mean Temperature 68 °F -  
Max Temperature 82 °F 78 °F 94 °F (1953)
Min Temperature 55 °F 53 °F 38 °F (1967)
Cooling Degree Days 3    
Growing Degree Days 18 (Base 50)    
Moisture  
Dew Point 56 °F    
Average Humidity 72    
Maximum Humidity 97    
Minimum Humidity 38    
Precipitation  
Precipitation 0.00 in - - ()
Sea Level Pressure  
Sea Level Pressure 29.97 in    
Wind  
Wind Speed 2 mph (WSW)    
Max Wind Speed 9 mph    
Max Gust Speed -    
Averages and records for this station are not official NWS values.
T = Trace of Precipitation, MM = Missing Value Source: NWS Daily Summary

Daily Weather History Graph

Daily Weather History Graph

Search for Another Location

Airport or City:

Astronomy

Sep. 04, 2013 Rise Set
Actual Time 6:28 AM EDT 7:26 PM EDT
Civil Twilight 6:00 AM EDT 7:54 PM EDT
Nautical Twilight 5:27 AM EDT 8:27 PM EDT
Astronomical Twilight 4:52 AM EDT 9:02 PM EDT
Moon 5:38 AM EDT (9/4) 6:44 PM EDT (9/4)
Length of Visible Light 13h 53m
Length of Day
12h 57m
Waning Crescent, 1% of the Moon is Illuminated
Sep 4
Waning Crescent
Sep 5
New
Sep 12
First Quarter
Sep 19
Full
Sep 26
Last Quarter

Hourly Weather History & Observations

Time (EDT) Temp. Heat Index Dew Point Humidity Pressure Visibility Wind Dir Wind Speed Gust Speed Precip Events Conditions
12:54 AM 59.0 °F - 57.0 °F 93% 29.92 in - Calm Calm - N/A   Unknown
1:54 AM 57.9 °F - 55.9 °F 93% 29.92 in - Calm Calm - N/A   Unknown
2:54 AM 57.9 °F - 55.9 °F 93% 29.93 in - Calm Calm - N/A   Unknown
3:54 AM 57.9 °F - 55.9 °F 93% 29.95 in - Calm Calm - N/A   Unknown
4:54 AM 55.9 °F - 54.0 °F 93% 29.96 in - Calm Calm - N/A   Unknown
5:54 AM 55.9 °F - 55.0 °F 97% 29.98 in - Calm Calm - N/A   Unknown
6:54 AM 55.0 °F - 53.1 °F 93% 30.00 in - Calm Calm - N/A   Unknown
7:54 AM 57.9 °F - 57.0 °F 97% 30.02 in - Calm Calm - N/A   Unknown
8:54 AM 66.0 °F - 55.9 °F 70% 30.02 in - Variable 4.6 mph - N/A   Unknown
9:54 AM 69.1 °F - 53.1 °F 57% 30.02 in - NW 8.1 mph - N/A   Unknown
10:54 AM 72.0 °F - 54.0 °F 53% 30.00 in - Variable 3.5 mph - N/A   Unknown
11:54 AM 73.9 °F - 55.0 °F 52% 30.00 in - NW 5.8 mph - N/A   Unknown
12:54 PM 77.0 °F - 55.0 °F 47% 29.99 in - SW 9.2 mph - N/A   Unknown
1:54 PM 78.1 °F - 53.1 °F 42% 29.97 in - SW 6.9 mph - N/A   Unknown
2:54 PM 81.0 °F 80.4 °F 53.1 °F 38% 29.96 in - Calm Calm - N/A   Unknown
3:54 PM 81.0 °F 80.5 °F 54.0 °F 39% 29.95 in - Variable 6.9 mph - N/A   Unknown
4:54 PM 79.0 °F - 55.9 °F 45% 29.96 in - Variable 6.9 mph - N/A   Unknown
5:54 PM 78.1 °F - 55.9 °F 46% 29.96 in - SSW 8.1 mph - N/A   Unknown
6:54 PM 73.9 °F - 57.0 °F 55% 29.96 in - Calm Calm - N/A   Unknown
7:54 PM 68.0 °F - 61.0 °F 78% 29.96 in - Calm Calm - N/A   Unknown
8:54 PM 64.9 °F - 61.0 °F 87% 29.98 in - Calm Calm - N/A   Unknown
9:54 PM 63.0 °F - 60.1 °F 90% 29.99 in - Calm Calm - N/A   Unknown
10:54 PM 62.1 °F - 60.1 °F 93% 29.99 in - Calm Calm - N/A   Unknown
11:54 PM 61.0 °F - 59.0 °F 93% 29.98 in - Calm Calm - N/A   Unknown